{"data":{"norad_id":41836,"epoch":"2026-05-25T04:24:43.418304Z","epoch_age_seconds":65965,"freshness":"FRESH","line1":"1 41836U 16064A   26145.18383586 -.00000277  00000+0  00000+0 0  9994","line2":"2 41836   0.0314 142.5560 0000955 326.3214 340.8456  1.00272937 34979","mean_motion":1.00272937,"eccentricity":9.55e-5,"inclination_deg":0.0314,"raan_deg":142.556,"arg_perigee_deg":326.3214,"mean_anomaly_deg":340.8456,"bstar":0,"rev_number":3497,"period_min":1436.0804052244,"perigee_km":35782.245315803,"apogee_km":35790.298717925,"semimajor_km":42164.409016864,"source":"CELESTRAK","updated_at":"2026-05-25T13:38:14.008415Z"}}